Location: Days
(41.3591°N, 106.7339°W)
Time: 12:00:50
(UTC+00:00)

RS-15 - Pass Details

Date: 09 July 2022
Orbit: 1881 x 2163 km, 64.8° (Epoch: 13 August)

Event Time Altitude Azimuth Distance (km) Brightness Sun altitude
Rises 03:28:50 0° 321° (NW) 5,692 12.5 -8.0°
Reaches altitude 10° 03:32:49 10° 329° (NNW) 4,691 11.4 -8.5°
Maximum altitude 03:44:08 38° 35° (NE) 2,950 9.0 -10.1°
Drops below altitude 10° 03:55:06 10° 101° (ESE) 4,578 9.5 -11.6°
Enters shadow 03:56:25 - 105° (ESE) 4,905 9.6 -11.8°
